(304681) = 2006 WV109

Discovered at Kitt Peak on 2006-11-19 by Spacewatch.

Orbit

Orbit type: Main Belt

Note: WebGL enabled browser required.

epoch2023-09-13.0
epoch JD2460200.5
perihelion date2018-04-24.58872
perihelion JD2458233.08872
argument of perihelion (°)1.45125
ascending node (°)82.81489
inclination (°)10.57868
eccentricity0.0694733
perihelion distance (AU)2.9575473
Tisserand w.r.t. Jupiter3.2
ΔV w.r.t. Earth (km/sec)11.1
semimajor axis (AU)3.1783583
mean anomaly (°)342.21160
mean daily motion (°/day)0.17394000
aphelion distance (AU)3.399
period (years)5.67
P-vector [x]0.10033490
P-vector [y]0.91099274
P-vector [z]0.40003142
Q-vector [x]-0.97813929
Q-vector [y]0.01671111
Q-vector [z]0.20727822
absolute magnitude15.9
phase slope0.15
uncertainty0
referenceMPEC 2023-Y46
observations used276
oppositions14
arc length (days)7978
first opposition used2002
last opposition used2023
residual rms (arc-secs)0.78
perturbers coarse indicatorM-v
perturbers precise indicator003Ek
first observation date used2002-02-10.0
last observation date used2023-12-15.0
computer nameMPCLINUX
JD of orbit computation2456789.260226
perihelion JD uncertainty (days)2.5665E-04
argument of perihelion uncertainty (°)5.7484E-05
ascending node uncertainty (°)2.8313E-05
inclination uncertainty (°)6.2385E-06
eccentricity uncertainty 7.6767E-08
perihelion distance uncertainty (AU)2.3875E-07
Minimum Orbit Intersection Distances (in AU)
for orbit epoch: 2460200.5, reference: E2023-Y46
Mercury2.6501
Venus2.23751
Earth1.97237
Mars1.36618
Jupiter1.81821
Saturn6.09722
Uranus15.3349
Neptune26.7879

Observations

285 total observations over interval: 2002 02 10.28381 – 2023 12 15.371806
These data are available for download (format description).

Date (UT) J2000 RA J2000 Dec Magn Location Ref
2002 02 10.28381 09 33 08.64 +28 07 12.4   704 – Lincoln Laboratory ETS, New Mexico MPS 407630
2002 02 10.29895 09 33 07.77 +28 07 18.1   704 – Lincoln Laboratory ETS, New Mexico MPS 407630
2002 02 10.31330 09 33 07.01 +28 07 22.6   704 – Lincoln Laboratory ETS, New Mexico MPS 407630
2003 04 11.37390 14 46 38.87 -04 17 33.3 21.0 V 691 – Steward Observatory, Kitt Peak-Spacewatch MPS 195577
2003 04 11.40077 14 46 37.75 -04 17 28.8 21.6 V 691 – Steward Observatory, Kitt Peak-Spacewatch MPS 195577
2003 04 11.42785 14 46 36.66 -04 17 23.7 21.5 V 691 – Steward Observatory, Kitt Peak-Spacewatch MPS 195577
2003 04 21.38717 14 39 30.19 -03 50 12.9 21.8 V 291 – LPL/Spacewatch II MPS 195577
2003 04 21.39099 14 39 29.97 -03 50 12.4 21.5 V 291 – LPL/Spacewatch II MPS 195577
2003 04 21.39532 14 39 29.80 -03 50 12.5 21.4 V 291 – LPL/Spacewatch II MPS 195577
2003 04 29.33624 14 33 20.75 -03 32 03.3 20.8 V 691 – Steward Observatory, Kitt Peak-Spacewatch MPS 195577
2003 04 29.36405 14 33 19.40 -03 32 00.0 20.7 V 691 – Steward Observatory, Kitt Peak-Spacewatch MPS 195577
2003 04 29.39175 14 33 18.08 -03 31 56.5 20.6 V 691 – Steward Observatory, Kitt Peak-Spacewatch MPS 195577
2003 05 06.24289 14 27 57.23 -03 20 12.2 21.0 V 691 – Steward Observatory, Kitt Peak-Spacewatch MPS 195577
2003 05 06.26900 14 27 56.00 -03 20 09.8 21.0 V 691 – Steward Observatory, Kitt Peak-Spacewatch MPS 195577
2003 05 06.29562 14 27 54.71 -03 20 07.7 20.8 V 691 – Steward Observatory, Kitt Peak-Spacewatch MPS 195577
2006 11 19.33696 05 27 18.21 +20 39 43.0 20.0 V 691 – Steward Observatory, Kitt Peak-Spacewatch MPS 190836
2006 11 19.35434 05 27 17.46 +20 39 45.4 20.3 V 691 – Steward Observatory, Kitt Peak-Spacewatch MPS 190836
2006 11 19.37167 05 27 16.71 +20 39 47.7 20.2 V 691 – Steward Observatory, Kitt Peak-Spacewatch MPS 190836
2006 11 23.32559 05 24 22.46 +20 48 43.0 20.2 V 691 – Steward Observatory, Kitt Peak-Spacewatch MPS 190836
2006 11 23.34301 05 24 21.62 +20 48 45.1 20.1 V 691 – Steward Observatory, Kitt Peak-Spacewatch MPS 190836
2006 11 23.36042 05 24 20.80 +20 48 47.3 20.3 V 691 – Steward Observatory, Kitt Peak-Spacewatch MPS 190836
2006 11 27.33229 05 21 09.39 +20 57 52.0   691 – Steward Observatory, Kitt Peak-Spacewatch MPS 190836
2006 11 27.34966 05 21 08.48 +20 57 54.3   691 – Steward Observatory, Kitt Peak-Spacewatch MPS 190836
2006 11 27.36707 05 21 07.56 +20 57 57.0   691 – Steward Observatory, Kitt Peak-Spacewatch MPS 190836
2006 12 01.33900 05 17 43.08 +21 07 04.1 20.3 V 691 – Steward Observatory, Kitt Peak-Spacewatch MPS 192532
2006 12 01.35639 05 17 42.15 +21 07 06.6 20.5 V 691 – Steward Observatory, Kitt Peak-Spacewatch MPS 192532
2006 12 01.37730 05 17 41.00 +21 07 09.7 20.5 V 691 – Steward Observatory, Kitt Peak-Spacewatch MPS 192532
2006 12 13.26612 05 06 46.80 +21 34 13.6 19.5 V G96 – Mt. Lemmon Survey MPS 192532
2006 12 13.27413 05 06 46.33 +21 34 14.8 19.4 V G96 – Mt. Lemmon Survey MPS 192532
2006 12 13.28177 05 06 45.90 +21 34 15.8 19.4 V G96 – Mt. Lemmon Survey MPS 192532
2006 12 13.28387 05 06 45.75 +21 34 16.8 20.2 V 703 – Catalina Sky Survey MPS 192532
2006 12 13.28883 05 06 45.50 +21 34 17.7 20.2 V 703 – Catalina Sky Survey MPS 192533
2006 12 13.28963 05 06 45.46 +21 34 16.8 19.5 V G96 – Mt. Lemmon Survey MPS 192533
2006 12 13.29381 05 06 45.21 +21 34 17.0 20.1 V 703 – Catalina Sky Survey MPS 192533
2006 12 13.29877 05 06 44.85 +21 34 19.3 20.6 V 703 – Catalina Sky Survey MPS 192533
2006 12 27.17860 04 54 32.58 +22 04 53.6 20.0 V G96 – Mt. Lemmon Survey MPS 192533
2006 12 27.18648 04 54 32.18 +22 04 54.8 20.1 V G96 – Mt. Lemmon Survey MPS 192533
2006 12 27.19437 04 54 31.78 +22 04 55.9 19.8 V G96 – Mt. Lemmon Survey MPS 192533
2007 01 08.29123 04 46 17.65 +22 31 28.4 19.4 V G96 – Mt. Lemmon Survey MPS 195577
2007 01 08.29655 04 46 17.43 +22 31 29.4 19.9 V G96 – Mt. Lemmon Survey MPS 195577
2007 01 08.30189 04 46 17.29 +22 31 29.5 20.6 V G96 – Mt. Lemmon Survey MPS 195577
2007 01 08.30720 04 46 17.07 +22 31 30.6 20.3 V G96 – Mt. Lemmon Survey MPS 195577
2007 02 07.17620 04 41 31.34 +23 45 09.7 20.2 V G96 – Mt. Lemmon Survey MPS 198764
2007 02 07.18462 04 41 31.45 +23 45 10.9 20.3 V G96 – Mt. Lemmon Survey MPS 198764
2007 02 07.19289 04 41 31.52 +23 45 12.4 20.4 V G96 – Mt. Lemmon Survey MPS 198764
2007 02 07.20130 04 41 31.66 +23 45 13.7 20.4 V G96 – Mt. Lemmon Survey MPS 198764
2008 03 02.48037 11 44 40.45 +18 24 15.0 20.1 V G96 – Mt. Lemmon Survey MPS 240813
2008 03 02.48706 11 44 40.16 +18 24 17.1 19.3 V G96 – Mt. Lemmon Survey MPS 240813
2008 03 02.49369 11 44 39.84 +18 24 19.7 20.1 V G96 – Mt. Lemmon Survey MPS 240813
2008 03 02.50043 11 44 39.55 +18 24 21.9 20.2 V G96 – Mt. Lemmon Survey MPS 240813
2008 03 10.36742 11 38 42.50 +19 07 02.8 19.6 V 703 – Catalina Sky Survey MPS 242200
2008 03 10.37349 11 38 42.18 +19 07 05.0 19.9 V 703 – Catalina Sky Survey MPS 242200
2008 03 10.37958 11 38 41.85 +19 07 06.3 20.2 V 703 – Catalina Sky Survey MPS 242200
2008 03 10.38565 11 38 41.56 +19 07 09.5 20.4 V 703 – Catalina Sky Survey MPS 242200
2009 04 22.44833 16 21 18.61 -14 52 48.3 20.5 V G96 – Mt. Lemmon Survey MPS 284440
2009 04 22.45375 16 21 18.43 -14 52 48.1 20.7 V G96 – Mt. Lemmon Survey MPS 284440
2009 04 22.45918 16 21 18.21 -14 52 48.1 20.6 V G96 – Mt. Lemmon Survey MPS 284440
2009 04 22.46471 16 21 18.07 -14 52 48.1 21.1 V G96 – Mt. Lemmon Survey MPS 284440
2011 09 25.47019 01 52 11.859 -03 21 24.98 21.2 w F51 – Pan-STARRS 1, Haleakala MPS 392686
2011 09 25.49548 01 52 10.950 -03 21 31.47 21.1 w F51 – Pan-STARRS 1, Haleakala MPS 392686
2011 09 25.50812 01 52 10.491 -03 21 34.74 21.0 w F51 – Pan-STARRS 1, Haleakala MPS 392686
2011 11 01.21622 01 25 13.40 -05 12 27.3 20.7 V G96 – Mt. Lemmon Survey MPS 398246
2011 11 01.22361 01 25 13.08 -05 12 28.0 20.5 V G96 – Mt. Lemmon Survey MPS 398246
2011 11 01.23116 01 25 12.72 -05 12 28.1 20.7 V G96 – Mt. Lemmon Survey MPS 398246
2011 11 01.23866 01 25 12.39 -05 12 28.2 20.3 V G96 – Mt. Lemmon Survey MPS 398246
2012 12 23.55868 07 50 18.758 +27 27 09.06 19.9 w F51 – Pan-STARRS 1, Haleakala MPS 448737
2012 12 23.57315 07 50 18.125 +27 27 14.03 19.9 w F51 – Pan-STARRS 1, Haleakala MPS 448737
2013 01 10.23090 07 35 31.99 +29 04 55.7 19.4 V 703 – Catalina Sky Survey MPS 450855
2013 01 10.23598 07 35 31.70 +29 04 57.0 19.7 V 703 – Catalina Sky Survey MPS 450855
2013 01 10.24111 07 35 31.45 +29 04 58.5 19.9 V 703 – Catalina Sky Survey MPS 450855
2013 01 10.24619 07 35 31.20 +29 05 00.3 19.4 V 703 – Catalina Sky Survey MPS 450855
2013 01 17.12997 07 29 11.89 +29 37 08.8 20.1 V 691 – Steward Observatory, Kitt Peak-Spacewatch MPS 452218
2013 01 17.14573 07 29 11.02 +29 37 13.2 20.1 V 691 – Steward Observatory, Kitt Peak-Spacewatch MPS 452218
2013 01 17.16455 07 29 09.85 +29 37 18.6 19.6 V 691 – Steward Observatory, Kitt Peak-Spacewatch MPS 452218
2013 01 18.14444 07 28 16.66 +29 41 27.9 20.4 V 691 – Steward Observatory, Kitt Peak-Spacewatch MPS 452218
2013 01 18.15964 07 28 15.84 +29 41 31.9 20.5 V 691 – Steward Observatory, Kitt Peak-Spacewatch MPS 452218
2013 01 18.17484 07 28 14.99 +29 41 35.9 20.6 V 691 – Steward Observatory, Kitt Peak-Spacewatch MPS 452218
2014 03 24.45293 13 24 40.408 +06 29 46.67 20.2 w F51 – Pan-STARRS 1, Haleakala MPS 508383
2014 03 24.46641 13 24 39.842 +06 29 50.42 20.4 w F51 – Pan-STARRS 1, Haleakala MPS 508383
2014 03 24.47995 13 24 39.271 +06 29 54.00 20.3 w F51 – Pan-STARRS 1, Haleakala MPS 508383
2014 03 24.49355 13 24 38.689 +06 29 57.67 20.4 w F51 – Pan-STARRS 1, Haleakala MPS 508383
2014 04 30.30251 12 58 11.752 +08 09 30.14 20.6 w F51 – Pan-STARRS 1, Haleakala MPS 513680
2014 04 30.31575 12 58 11.247 +08 09 30.09 20.7 w F51 – Pan-STARRS 1, Haleakala MPS 513680
2014 04 30.32893 12 58 10.755 +08 09 30.29 20.8 w F51 – Pan-STARRS 1, Haleakala MPS 513680
2014 04 30.34211 12 58 10.269 +08 09 30.33 20.7 w F51 – Pan-STARRS 1, Haleakala MPS 513680
2016 07 05.53832 22 48 48.349 -20 03 28.62 21.5 w F51 – Pan-STARRS 1, Haleakala MPS 719167
2016 07 05.54861 22 48 48.341 -20 03 31.39 21.8 w F51 – Pan-STARRS 1, Haleakala MPS 719167
2016 07 05.55889 22 48 48.332 -20 03 34.35 21.6 w F51 – Pan-STARRS 1, Haleakala MPS 719167
